WetterOnline ( http://www.wetteronline.de )

Wetter aktuell Hohe Warte

Aktuelles Wetter: Wien / Hohe Warte (200m)

6-stündlich | Neueste Meldungen
Ortszeit Temperatur Wetter
So, 24.03. 13:00 17.2° C wolkenlos
So, 24.03. 7:00 7.2° C wolkenlos
So, 24.03. 1:00 8.4° C wolkenlos
Sa, 23.03. 19:00 13.9° C wolkenlos
Sa, 23.03. 13:00 16.9° C fast wolkenlos
Sa, 23.03. 7:00 5.4° C wolkenlos
Sa, 23.03. 1:00 7.2° C fast wolkenlos
Fr, 22.03. 19:00 13.0° C wolkenlos
Ortszeit Temperatur Wetter
So, 24.03. 18:00 16.1° C fast wolkenlos
So, 24.03. 17:00 17.8° C fast wolkenlos
So, 24.03. 16:00 18.5° C wolkenlos
So, 24.03. 15:00 18.7° C fast wolkenlos
So, 24.03. 14:00 18.2° C fast wolkenlos
So, 24.03. 13:00 17.2° C wolkenlos
Ortszeit Relative Feuchte Sichtweite
So, 24.03. 13:00 54% 12 km
So, 24.03. 7:00 79% 15 km
So, 24.03. 1:00 74% 15 km
Sa, 23.03. 19:00 61% 22 km
Sa, 23.03. 13:00 51% 12 km
Sa, 23.03. 7:00 91% 4.3 km
Sa, 23.03. 1:00 83% 20 km
Fr, 22.03. 19:00 60% 20 km
Ortszeit Relative Feuchte Sichtweite
So, 24.03. 18:00 50% 16 km
So, 24.03. 17:00 46% 16 km
So, 24.03. 16:00 44% 15 km
So, 24.03. 15:00 50% 30 km
So, 24.03. 14:00 52% 16 km
So, 24.03. 13:00 54% 12 km
Ortszeit Niederschlagsmenge Niederschlagsart
So, 24.03. 13:00 0.0 l/m2 in 24 Std. -
So, 24.03. 7:00 0.0 l/m2 in 24 Std. -
So, 24.03. 1:00 0.0 l/m2 in 24 Std. -
Sa, 23.03. 19:00 0.0 l/m2 in 24 Std. -
Sa, 23.03. 13:00 0.0 l/m2 in 24 Std. -
Sa, 23.03. 7:00 0.0 l/m2 in 24 Std. -
Sa, 23.03. 1:00 0.0 l/m2 in 6 Std. -
Fr, 22.03. 19:00 0.0 l/m2 in 24 Std. -
Ortszeit Niederschlagsmenge Niederschlagsart
So, 24.03. 18:00 keine Meldung -
So, 24.03. 17:00 keine Meldung -
So, 24.03. 16:00 keine Meldung -
So, 24.03. 15:00 keine Meldung -
So, 24.03. 14:00 keine Meldung -
So, 24.03. 13:00 keine Meldung -
Ortszeit Stärke Spitze Richtung
km/h Bft. km/h Grad Sektor
So, 24.03. 13:00 7 2 - 50° NO
So, 24.03. 7:00 7 2 - 340° N
So, 24.03. 1:00 4 1 - 100° O
Sa, 23.03. 19:00 4 1 - 260° W
Sa, 23.03. 13:00 7 2 - 100° O
Sa, 23.03. 7:00 4 1 - 290° W
Sa, 23.03. 1:00 4 1 - 60° NO
Fr, 22.03. 19:00 7 2 - 40° NO
Ortszeit Stärke Spitze Richtung
km/h Bft. km/h Grad Sektor
So, 24.03. 18:00 7 2 - 340° N
So, 24.03. 17:00 7 2 - 360° N
So, 24.03. 16:00 7 2 - 30° NO
So, 24.03. 15:00 7 2 - 60° NO
So, 24.03. 14:00 7 2 - 60° NO
So, 24.03. 13:00 7 2 - 50° NO
Ortszeit Untergrenze Bedeckung Gattung
total tief tief mittel hoch
So, 24.03. 13:00 - 0/8 0/8 - - -
So, 24.03. 7:00 - 0/8 0/8 - - -
So, 24.03. 1:00 - 0/8 0/8 - - -
Sa, 23.03. 19:00 - 0/8 0/8 - - -
Sa, 23.03. 13:00 1200 m 1/8 1/8 Cu - Ci
Sa, 23.03. 7:00 - 0/8 0/8 - - -
Sa, 23.03. 1:00 9000 m 1/8 0/8 - - Ci
Fr, 22.03. 19:00 - 0/8 0/8 - - -
Ortszeit Bedeckungsgrad in Achtel und Wolkenuntergrenze
So, 24.03. 18:00 1(9000m)
So, 24.03. 17:00 1(9000m)
So, 24.03. 16:00 keine Wolken
So, 24.03. 15:00 1(9000m)
So, 24.03. 14:00 1(9000m)
So, 24.03. 13:00 keine Wolken
Ortszeit Luftdruck NN (hPa) Tendenz (hPa in 3 Std.)
So, 24.03. 13:00 1021 - 2,5
So, 24.03. 7:00 1025 + 0,4
So, 24.03. 1:00 1025 - 0,7
Sa, 23.03. 19:00 1025 - 0,2
Sa, 23.03. 13:00 1027 - 1,5
Sa, 23.03. 7:00 1029 0,0
Sa, 23.03. 1:00 1030 + 0,1
Fr, 22.03. 19:00 1029 - 0,6
Ortszeit Luftdruck NN (hPa) Tendenz (hPa in 3 Std.)
So, 24.03. 18:00 1017 - 1,5
So, 24.03. 17:00 1017 - 2,0
So, 24.03. 16:00 1017 - 3,0
So, 24.03. 15:00 1018 - 3,0
So, 24.03. 14:00 1019 - 3,3
So, 24.03. 13:00 1021 - 2,5
Ortszeit Schneehöhe (cm)
So, 24.03. 13:00 -
So, 24.03. 7:00 -
So, 24.03. 1:00 -
Sa, 23.03. 19:00 -
Sa, 23.03. 13:00 -
Sa, 23.03. 7:00 -
Sa, 23.03. 1:00 -
Fr, 22.03. 19:00 -
Ortszeit Schneehöhe (cm)
So, 24.03. 18:00 -
So, 24.03. 17:00 -
So, 24.03. 16:00 -
So, 24.03. 15:00 -
So, 24.03. 14:00 -
So, 24.03. 13:00 -
Link zu dieser Seite / Seite empfehlen

Das Wetter in ...